Moose Lake, MN

9:40 AM CST on December 09, 2019 (GMT -0600)
Moose Lake-Carlton County

Weather History for KMZH - October, 2019

Change the Weather History Date:

Monday, October 14, 2019

  Actual Average Record
Temperature  
Mean Temperature 39 °F -  
Max Temperature 50 °F 57 °F 81 °F (1953)
Min Temperature 28 °F 35 °F 22 °F (1970)
Degree Days  
Heating Degree Days 26    
Moisture  
Dew Point 31 °F    
Average Humidity 73    
Maximum Humidity 100    
Minimum Humidity 43    
Precipitation  
Precipitation 0.00 in - - ()
Sea Level Pressure  
Sea Level Pressure 29.91 in    
Wind  
Wind Speed 3 mph (SW)    
Max Wind Speed 9 mph    
Max Gust Speed 16 mph    
Visibility 10 miles    
Events      
Averages and records for this station are not official NWS values.
T = Trace of Precipitation, MM = Missing Value Source: NWS Daily Summary

Daily Weather History Graph

Daily Weather History Graph

Search for Another Location

Airport or City:

Astronomy

Oct. 14, 2019 Rise Set
Actual Time 7:26 AM CDT 6:26 PM CDT
Civil Twilight 6:56 AM CDT 6:57 PM CDT
Nautical Twilight 6:21 AM CDT 7:31 PM CDT
Astronomical Twilight 5:46 AM CDT 8:06 PM CDT
Moon 7:16 PM CDT (10/14) 7:58 AM CDT (10/14)
Length of Visible Light 12h 00m
Length of Day
10h 59m
Full, 99% of the Moon is Illuminated
Oct 14
Full
Oct 21
Last Quarter
Oct 27
New
Nov 4
First Quarter
Nov 12
Full

Hourly Weather History & Observations

Time (CDT) Temp. Windchill Dew Point Humidity Pressure Visibility Wind Dir Wind Speed Gust Speed Precip Events Conditions
12:22 AM 32.0 °F 26.4 °F 30.2 °F 93% 29.86 in 10.0 mi West 5.8 mph - N/A   Mostly Cloudy
1:03 AM 33.8 °F 28.6 °F 30.2 °F 87% 29.86 in 10.0 mi West 5.8 mph - N/A   Overcast
1:43 AM 32.0 °F 27.5 °F 30.2 °F 93% 29.87 in 10.0 mi West 4.6 mph - N/A   Clear
2:23 AM 32.0 °F - 28.4 °F 87% 29.87 in 10.0 mi Calm Calm - N/A   Clear
3:02 AM 30.2 °F 25.4 °F 28.4 °F 93% 29.89 in 10.0 mi WNW 4.6 mph - N/A   Clear
3:43 AM 30.2 °F 25.4 °F 28.4 °F 93% 29.89 in 10.0 mi West 4.6 mph - N/A   Mostly Cloudy
4:24 AM 30.2 °F - 28.4 °F 93% 29.89 in 10.0 mi Calm Calm - N/A   Scattered Clouds
5:03 AM 30.2 °F - 28.4 °F 93% 29.90 in 10.0 mi Calm Calm - N/A   Mostly Cloudy
5:43 AM 28.4 °F - 26.6 °F 93% 29.91 in 10.0 mi Calm Calm - N/A   Overcast
6:24 AM 28.4 °F - 26.6 °F 93% 29.92 in 10.0 mi Calm Calm - N/A   Mostly Cloudy
7:04 AM 30.2 °F - 28.4 °F 93% 29.93 in 10.0 mi Calm Calm - N/A   Overcast
7:43 AM 30.2 °F - 28.4 °F 93% 29.93 in 10.0 mi Calm Calm - N/A   Overcast
8:22 AM 30.2 °F 26.7 °F 28.4 °F 93% 29.93 in 10.0 mi SW 3.5 mph - N/A   Mostly Cloudy
9:03 AM 33.8 °F 30.8 °F 32.0 °F 93% 29.94 in 10.0 mi SW 3.5 mph - N/A   Clear
9:43 AM 39.2 °F 35.0 °F 32.0 °F 75% 29.95 in 10.0 mi West 5.8 mph - N/A   Clear
10:21 AM 41.0 °F 36.4 °F 32.0 °F 70% 29.95 in 10.0 mi West 6.9 mph - N/A   Scattered Clouds
11:02 AM 42.8 °F 39.3 °F 32.0 °F 66% 29.95 in 10.0 mi WSW 5.8 mph - N/A   Scattered Clouds
11:10 AM 42.8 °F 40.1 °F 32.0 °F 66% 29.95 in 10.0 mi WNW 4.6 mph - N/A   Scattered Clouds
11:16 AM 42.8 °F 39.3 °F 32.0 °F 66% 29.95 in 10.0 mi WSW 5.8 mph - N/A   Clear
11:37 AM 44.6 °F 41.4 °F 32.0 °F 61% 29.95 in 10.0 mi WSW 5.8 mph - N/A   Clear
11:55 AM 44.6 °F 39.7 °F 30.2 °F 57% 29.94 in 10.0 mi SW 9.2 mph - N/A   Clear
12:15 PM 44.6 °F 40.7 °F 30.2 °F 57% 29.94 in 10.0 mi WSW 6.9 mph - N/A   Clear
12:16 PM 44.6 °F 40.7 °F 30.2 °F 57% 29.94 in 10.0 mi SW 6.9 mph - N/A   Clear
12:35 PM 46.4 °F 42.9 °F 30.2 °F 53% 29.93 in 10.0 mi West 6.9 mph - N/A   Clear
12:57 PM 46.4 °F 43.5 °F 30.2 °F 53% 29.93 in 10.0 mi SW 5.8 mph - N/A   Clear
1:16 PM 46.4 °F 44.3 °F 30.2 °F 53% 29.92 in 10.0 mi SSW 4.6 mph - N/A   Clear
1:35 PM 46.4 °F 42.4 °F 30.2 °F 53% 29.92 in 10.0 mi SW 8.1 mph 16.1 mph N/A   Clear
1:36 PM 46.4 °F 42.9 °F 30.2 °F 53% 29.92 in 10.0 mi SW 6.9 mph 16.1 mph N/A   Clear
1:55 PM 48.2 °F - 30.2 °F 50% 29.91 in 10.0 mi West 4.6 mph - N/A   Clear
1:56 PM 48.2 °F - 30.2 °F 50% 29.91 in 10.0 mi WSW 4.6 mph - N/A   Clear
2:18 PM 50.0 °F - 30.2 °F 47% 29.90 in 10.0 mi SSW 6.9 mph - N/A   Clear
2:36 PM 50.0 °F - 28.4 °F 43% 29.90 in 10.0 mi SSW 4.6 mph - N/A   Clear
2:56 PM 50.0 °F - 28.4 °F 43% 29.90 in 10.0 mi SSW 4.6 mph - N/A   Clear
3:23 PM 46.4 °F 42.4 °F 28.4 °F 50% 29.90 in 10.0 mi SW 8.1 mph - N/A   Clear
3:35 PM 46.4 °F 45.2 °F 28.4 °F 50% 29.90 in 10.0 mi SW 3.5 mph - N/A   Clear
3:36 PM 46.4 °F 44.3 °F 28.4 °F 50% 29.89 in 10.0 mi SW 4.6 mph - N/A   Clear
3:58 PM 46.4 °F 44.3 °F 30.2 °F 53% 29.90 in 10.0 mi SSW 4.6 mph - N/A   Clear
4:16 PM 48.2 °F - 30.2 °F 50% 29.89 in 10.0 mi ESE 3.5 mph - N/A   Clear
4:35 PM 50.0 °F - 30.2 °F 47% 29.89 in 10.0 mi SSE 3.5 mph - N/A   Scattered Clouds
4:36 PM 50.0 °F - 30.2 °F 47% 29.89 in 10.0 mi Calm Calm - N/A   Scattered Clouds
4:55 PM 48.2 °F - 30.2 °F 50% 29.89 in 10.0 mi South 4.6 mph - N/A   Scattered Clouds
4:56 PM 48.2 °F - 30.2 °F 50% 29.89 in 10.0 mi SSW 5.8 mph - N/A   Scattered Clouds
5:15 PM 46.4 °F - 32.0 °F 57% 29.89 in 10.0 mi Calm Calm - N/A   Scattered Clouds
5:19 PM 46.4 °F 45.2 °F 32.0 °F 57% 29.89 in 10.0 mi South 3.5 mph - N/A   Scattered Clouds
5:37 PM 44.6 °F - 32.0 °F 61% 29.89 in 10.0 mi Calm Calm - N/A   Mostly Cloudy
5:55 PM 44.6 °F 41.4 °F 32.0 °F 61% 29.89 in 10.0 mi SSW 5.8 mph - N/A   Mostly Cloudy
6:15 PM 42.8 °F 40.1 °F 32.0 °F 66% 29.89 in 10.0 mi SSW 4.6 mph - N/A   Scattered Clouds
6:16 PM 42.8 °F 41.1 °F 32.0 °F 66% 29.89 in 10.0 mi SSW 3.5 mph - N/A   Scattered Clouds
6:35 PM 41.0 °F - 32.0 °F 70% 29.89 in 10.0 mi Calm Calm - N/A   Clear
6:36 PM 41.0 °F - 32.0 °F 70% 29.89 in 10.0 mi Calm Calm - N/A   Clear
6:58 PM 39.2 °F - 32.0 °F 75% 29.90 in 10.0 mi Calm Calm - N/A   Mostly Cloudy
7:16 PM 37.4 °F - 32.0 °F 81% 29.89 in 10.0 mi Calm Calm - N/A   Scattered Clouds
7:36 PM 35.6 °F - 32.0 °F 87% 29.90 in 10.0 mi Calm Calm - N/A   Scattered Clouds
7:55 PM 35.6 °F - 32.0 °F 87% 29.90 in 10.0 mi Calm Calm - N/A   Mostly Cloudy
7:56 PM 35.6 °F - 32.0 °F 87% 29.90 in 10.0 mi Calm Calm - N/A   Mostly Cloudy
8:15 PM 35.6 °F - 32.0 °F 87% 29.90 in 10.0 mi Calm Calm - N/A   Mostly Cloudy
8:20 PM 35.6 °F - 32.0 °F 87% 29.90 in 10.0 mi Calm Calm - N/A   Mostly Cloudy
8:37 PM 35.6 °F - 32.0 °F 87% 29.90 in 10.0 mi Calm Calm - N/A   Scattered Clouds
8:56 PM 35.6 °F - 32.0 °F 87% 29.90 in 10.0 mi Calm Calm - N/A   Clear
9:15 PM 35.6 °F - 32.0 °F 87% 29.91 in 10.0 mi Calm Calm - N/A   Clear
9:59 PM 35.6 °F - 32.0 °F 87% 29.92 in 10.0 mi Calm Calm - N/A   Clear
10:16 PM 33.8 °F - 32.0 °F 93% 29.92 in 10.0 mi Calm Calm - N/A   Clear
10:35 PM 33.8 °F - 32.0 °F 93% 29.92 in 10.0 mi Calm Calm - N/A   Clear
10:36 PM 33.8 °F - 32.0 °F 93% 29.92 in 10.0 mi Calm Calm - N/A   Clear
10:55 PM 33.8 °F - 32.0 °F 93% 29.92 in 10.0 mi Calm Calm - N/A   Clear
10:56 PM 33.8 °F - 32.0 °F 93% 29.92 in 10.0 mi Calm Calm - N/A   Clear
11:15 PM 33.8 °F - 32.0 °F 93% 29.92 in 10.0 mi Calm Calm - N/A   Clear
11:19 PM 33.8 °F - 32.0 °F 93% 29.92 in 10.0 mi Calm Calm - N/A   Clear
11:37 PM 32.0 °F - 32.0 °F 100% 29.92 in 10.0 mi Calm Calm - N/A   Clear
11:55 PM 32.0 °F - 32.0 °F 100% 29.92 in 10.0 mi Calm Calm - N/A   Clear